Гейчай - Уджары

Азербайджан     40°35′04″N   47°41′32″E
темп.,
°C
ветер,
м/с
пор.,
м/с
влажн.,
%
обл.,
%
осадки,
мм/ч
давл.,
гПа
погр.,
м
23 октября, сб
сб2301:00+13св12610 0.0 102310
04:00+12ссз22630 0.0 102211
07:00+11сз22670 0.0 102114
10:00+16зсз22480 0.0 1022341
13:00+20зсз22360 0.0 1020837
16:00+21з12320 0.0 1018949
19:00+17с00430 0.0 101911
22:00+16всв22460 0.0 101911
24 октября, вс
вс2401:00+14всв11530 0.0 101811
04:00+13сз11570 0.0 101710
07:00+12зсз22600 0.0 101711
10:00+17з01450 0.0 1018284
13:00+21зсз11350 0.0 1017877
16:00+22вюв11300 0.0 1016963
19:00+18вюв33420 0.0 101632
22:00+16в34515 0.0 101665
25 октября, пн
пн2501:00+14в22605 0.0 101513
04:00+13зсз226429 0.0 101411
07:00+12з2263100 0.0 101419
10:00+16с125093 0.0 1016360
13:00+19с2338100 0.0 10161022
16:00+21с253656 0.0 10171237
19:00+18зсз71234100 0.0 1019643
22:00+16зюз4837100 0.0 1022435
26 октября, вт
вт2601:00+15з6936100 0.0 1024700
04:00+14зсз71141100 0.0 1025985
07:00+12всв125775 0.0 1027129
10:00+12ююв556199 0.0 1029971
13:00+12ю6659100 0.1 10291028
16:00+12ююв5554100 0.1 10291179
19:00+11юв5655100 0.0 1031976
22:00+10вюв356199 0.0 1032355
27 октября, ср
ср2701:00+10ссв1159100 0.0 1032249
04:00+10сз2261100 0.0 1032196
07:00+10сз2363100 0.0 1032124
10:00+12зсз2258100 0.0 1033423
13:00+13зюз215585 0.0 1031761
16:00+14ю215233 0.0 1029752
19:00+11ююв22635 0.0 103016
22:00+11в116795 0.0 102938